📊 John's Weather Station

Last reading: 2021-08-05 00:42:22

TEMPERATURE

--

Temperature 20 readings
Min Max Average
5.19 °C 5.83 °C 5.55 °C

HUMIDITY

--

Humidity 20 readings
Min Max Average
79.01 % 80.58 % 79.73 %

View Latest 20 Readings

ID Sensor Location Temp Humid Bar Timestamp
76585 BME280 Lounge 5.30 80.45 1007.11 2021-08-05 00:42:22
76584 BME280 Lounge 5.34 80.58 1007.26 2021-08-05 00:32:46
76583 BME280 Lounge 5.31 80.58 1007.06 2021-08-05 00:23:09
76582 BME280 Lounge 5.27 80.37 1007.35 2021-08-05 00:13:33
76581 BME280 Lounge 5.32 80.33 1007.63 2021-08-05 00:03:57
76580 BME280 Lounge 5.26 80.32 1007.83 2021-08-04 23:54:17
76579 BME280 Lounge 5.19 80.01 1007.86 2021-08-04 23:44:41
76578 BME280 Lounge 5.46 79.89 1008.07 2021-08-04 23:35:07
76577 BME280 Lounge 5.44 79.75 1008.33 2021-08-04 23:25:31
76576 BME280 Lounge 5.54 79.66 1008.41 2021-08-04 23:15:56
76575 BME280 Lounge 5.74 79.61 1008.70 2021-08-04 23:06:21
76574 BME280 Lounge 5.79 79.49 1008.77 2021-08-04 22:56:47
76573 BME280 Lounge 5.71 79.38 1009.07 2021-08-04 22:47:11
76572 BME280 Lounge 5.75 79.26 1009.08 2021-08-04 22:37:36
76571 BME280 Lounge 5.83 79.19 1009.24 2021-08-04 22:28:01
76570 BME280 Lounge 5.79 79.21 1009.23 2021-08-04 22:18:26
76569 BME280 Lounge 5.77 79.15 1009.29 2021-08-04 22:08:52
76568 BME280 Lounge 5.74 79.15 1009.31 2021-08-04 21:59:16
76567 BME280 Lounge 5.70 79.15 1009.16 2021-08-04 21:49:42
76566 BME280 Lounge 5.70 79.01 1009.33 2021-08-04 21:40:06